WD6FGE Weather Reports


Display with metric or nautical units.
time (UTC)temp
F
wind
direction
speed
MPH
gust
MPH
rain 1hr
in
rain 24hr
in
rain mn
in
humidity
%
barometer
mb
20180523142159 56 261 0.0 0.0 0.00 0.12 0.00 93 1007.9
20180523141127 55 261 0.0 0.0 0.00 0.12 0.00 93 1007.8
20180523140125 55 261 0.0 0.0 0.00 0.12 0.00 93 1007.8
20180523135139 55 261 0.0 0.0 0.00 0.12 0.00 93 1007.7
20180523134120 54 261 0.0 0.0 0.00 0.12 0.00 93 1007.6
20180523133046 54 261 0.0 0.0 0.00 0.12 0.00 93 1007.6
20180523132054 54 261 0.0 0.0 0.00 0.12 0.00 93 1007.5
20180523131043 53 261 0.0 0.0 0.00 0.12 0.00 93 1007.5
20180523130026 53 261 0.0 0.0 0.00 0.12 0.00 93 1007.4
20180523125008 53 261 0.0 0.0 0.00 0.12 0.00 93 1007.4
20180523124016 52 261 0.0 0.0 0.00 0.12 0.00 93 1007.3
20180523122945 52 261 0.0 0.0 0.00 0.12 0.00 93 1007.3
20180523121957 52 261 0.0 0.0 0.00 0.12 0.00 93 1007.3
20180523120939 52 261 0.0 0.0 0.00 0.12 0.00 93 1007.3
20180523115929 52 261 0.0 0.0 0.00 0.12 0.00 93 1007.3
20180523114909 53 261 0.0 0.0 0.00 0.12 0.00 93 1007.3
20180523113933 52 219 0.0 0.0 0.00 0.12 0.00 93 1007.2
20180523112944 52 219 0.0 1.0 0.00 0.12 0.00 93 1007.2
20180523111947 52 219 0.0 1.0 0.00 0.12 0.00 92 1007.3
20180523110954 53 219 0.0 0.0 0.00 0.12 0.00 93 1007.3
20180523105928 53 219 0.0 0.0 0.00 0.12 0.00 92 1007.3
20180523104915 53 143 0.0 0.0 0.00 0.12 0.00 92 1007.3
20180523103908 53 143 0.0 0.0 0.00 0.12 0.00 92 1007.2
20180523102922 54 304 0.0 0.0 0.00 0.12 0.00 92 1007.2
20180523101908 54 304 0.0 0.0 0.00 0.12 0.00 92 1007.2
20180523100900 54 304 0.0 0.0 0.00 0.12 0.00 92 1007.2
20180523095922 55 304 0.0 0.0 0.00 0.12 0.00 92 1007.2
20180523094943 55 304 0.0 0.0 0.00 0.12 0.00 92 1007.1
20180523093933 55 304 0.0 0.0 0.00 0.12 0.00 92 1007.0
20180523092942 54 304 0.0 0.0 0.00 0.12 0.00 92 1007.0
20180523091001 54 304 0.0 0.0 0.00 0.12 0.00 92 1007.0
20180523085952 54 302 0.0 0.0 0.00 0.12 0.00 92 1006.9
20180523085015 54 302 0.0 0.0 0.00 0.12 0.00 92 1006.9
20180523084023 54 302 0.0 0.0 0.00 0.12 0.00 92 1007.0
20180523083001 54 302 0.0 1.0 0.00 0.12 0.00 92 1007.0
20180523082004 54 302 0.0 1.0 0.00 0.12 0.00 92 1007.0
20180523081003 55 302 0.0 0.0 0.00 0.12 0.00 92 1007.0
20180523075940 55 302 0.0 0.0 0.00 0.12 0.00 92 1007.0
20180523074923 56 302 0.0 0.0 0.00 0.12 0.00 92 1006.9
20180523073921 56 302 0.0 0.0 0.00 0.12 0.00 92 1007.0
20180523072926 55 302 0.0 0.0 0.00 0.12 0.00 92 1006.8
20180523071916 56 302 0.0 0.0 0.00 0.12 0.00 92 1006.7
20180523070934 56 302 0.0 0.0 0.00 0.12 0.00 92 1006.8
20180523065928 56 302 0.0 0.0 0.00 0.12 0.12 92 1006.9
20180523064921 56 302 0.0 0.0 0.00 0.12 0.12 92 1006.9
20180523063852 56 302 0.0 0.0 0.00 0.12 0.12 92 1006.9
20180523062824 56 302 0.0 0.0 0.00 0.12 0.12 92 1007.0
20180523061812 56 302 0.0 0.0 0.00 0.12 0.12 91 1007.0
20180523060749 57 302 0.0 0.0 0.00 0.12 0.12 92 1007.0
20180523055813 57 302 0.0 0.0 0.00 0.12 0.12 91 1006.9
20180523054835 57 302 0.0 0.0 0.00 0.12 0.12 91 1006.8
20180523053808 57 302 0.0 1.0 0.00 0.12 0.12 91 1006.8
20180523052756 58 302 0.0 1.0 0.00 0.12 0.12 91 1006.7
20180523051739 58 302 0.0 2.0 0.00 0.12 0.12 91 1006.6
20180523050714 58 302 0.0 1.0 0.00 0.12 0.12 91 1006.5
20180523045655 59 302 0.0 2.0 0.00 0.12 0.12 91 1006.5
20180523044701 59 302 0.0 1.0 0.00 0.12 0.12 91 1006.3
20180523043703 59 302 0.0 0.0 0.00 0.12 0.12 91 1006.0
20180523042720 59 302 1.0 3.0 0.00 0.12 0.12 91 1005.9
20180523041705 59 336 2.0 5.0 0.00 0.12 0.12 91 1005.7
20180523040725 60 315 2.0 5.0 0.00 0.12 0.12 91 1005.5
20180523035717 60 351 2.0 6.0 0.00 0.12 0.12 91 1005.0
20180523034730 60 18 2.0 6.0 0.00 0.12 0.12 91 1004.8
20180523033735 60 355 0.0 2.0 0.00 0.12 0.12 91 1004.5
20180523032742 60 355 0.0 2.0 0.00 0.12 0.12 91 1004.5
20180523031711 61 0 0.0 0.0 0.00 0.12 0.12 90 1004.8
20180523030702 61 0 1.0 4.0 0.00 0.12 0.12 90 1005.1
20180523025718 61 193 1.0 5.0 0.00 0.12 0.12 90 1005.1
20180523024714 61 171 1.0 6.0 0.00 0.12 0.12 89 1005.1
20180523023712 60 125 2.0 12.0 0.04 0.12 0.12 89 1005.1
20180523022711 60 165 4.0 12.0 0.16 0.12 0.12 89 1004.9
20180523021648 60 222 4.0 7.0 0.12 0.09 0.09 88 1005.6
20180523020633 61 184 2.0 6.0 0.10 0.06 0.06 88 1005.6
20180523015652 61 169 1.0 10.0 0.00 0.04 0.06 88 1005.8
20180523014717 60 310 4.0 10.0 0.05 0.04 0.05 87 1005.4
20180523013706 61 355 2.0 6.0 0.06 0.04 0.05 86 1005.4
20180523012713 62 318 3.0 10.0 0.23 0.04 0.04 81 1005.4
20180523011702 64 347 5.0 19.0 0.05 0.02 0.02 75 1005.2
20180523010713 65 314 5.0 19.0 0.00 0.01 0.01 70 1005.0
20180523005645 69 13 3.0 8.0 0.00 0.00 0.00 63 1004.6
20180523004622 71 5 2.0 12.0 0.00 0.00 0.00 57 1003.9
20180523003602 74 40 4.0 12.0 0.00 0.00 0.00 52 1003.7
20180523002552 76 53 3.0 11.0 0.00 0.00 0.00 46 1003.5
20180523001548 77 188 5.0 12.0 0.00 0.00 0.00 43 1003.1
20180523000525 78 173 4.0 15.0 0.00 0.00 0.00 40 1003.0
20180522235543 78 184 4.0 15.0 0.00 0.00 0.00 39 1003.0
20180522234539 79 273 6.0 15.0 0.00 0.00 0.00 39 1003.0
20180522233512 80 180 6.0 15.0 0.00 0.00 0.00 38 1003.1
20180522232523 82 167 7.0 21.0 0.00 0.00 0.00 38 1002.9
20180522231542 82 176 8.0 21.0 0.00 0.00 0.00 39 1003.1
20180522230542 81 198 7.0 17.0 0.00 0.00 0.00 40 1003.2
20180522225541 80 196 7.0 17.0 0.00 0.00 0.00 42 1003.2
20180522224510 82 188 7.0 16.0 0.00 0.00 0.00 39 1003.2
20180522223448 83 231 7.0 14.0 0.00 0.00 0.00 41 1003.3
20180522222449 82 131 5.0 14.0 0.00 0.00 0.00 41 1003.4
20180522221513 83 224 4.0 11.0 0.00 0.00 0.00 36 1003.5
20180522220538 82 312 4.0 19.0 0.00 0.00 0.00 30 1003.7
20180522215546 82 180 7.0 19.0 0.00 0.00 0.00 30 1003.7
20180522214523 83 180 4.0 11.0 0.00 0.00 0.00 28 1003.8
20180522213508 83 195 3.0 11.0 0.00 0.00 0.00 27 1003.7
20180522212455 83 189 1.0 6.0 0.00 0.00 0.00 28 1003.9
20180522211517 83 216 2.0 6.0 0.00 0.00 0.00 28 1004.1
20180522210531 82 251 1.0 7.0 0.00 0.00 0.00 31 1004.2
20180522205458 82 27 1.0 7.0 0.00 0.00 0.00 33 1004.4
20180522204521 81 305 1.0 4.0 0.00 0.00 0.00 34 1004.5
20180522203516 82 236 1.0 5.0 0.00 0.00 0.00 34 1004.7
20180522202515 81 127 2.0 5.0 0.00 0.00 0.00 36 1004.9
20180522201525 81 43 1.0 6.0 0.00 0.00 0.00 31 1005.1
20180522200512 80 153 2.0 6.0 0.00 0.00 0.00 39 1005.2
20180522195457 79 19 3.0 6.0 0.00 0.00 0.00 40 1005.4
20180522194442 79 5 2.0 6.0 0.00 0.00 0.00 36 1005.6
20180522193409 79 208 1.0 4.0 0.00 0.00 0.00 40 1005.7
20180522192337 78 59 1.0 5.0 0.00 0.00 0.00 42 1005.9
20180522191323 77 17 2.0 5.0 0.00 0.00 0.00 43 1006.1
20180522190342 77 177 1.0 7.0 0.00 0.00 0.00 42 1006.3
20180522185326 76 84 2.0 7.0 0.00 0.00 0.00 42 1006.4
20180522184310 77 281 1.0 6.0 0.00 0.00 0.00 43 1006.5
20180522183320 76 13 1.0 6.0 0.00 0.00 0.00 48 1006.7
20180522182316 75 38 2.0 6.0 0.00 0.00 0.00 46 1006.9
20180522181318 75 299 2.0 5.0 0.00 0.00 0.00 48 1007.0
20180522180319 74 121 2.0 6.0 0.00 0.00 0.00 49 1007.1
20180522175335 73 22 2.0 6.0 0.00 0.00 0.00 49 1007.4
20180522174354 72 350 1.0 6.0 0.00 0.00 0.00 50 1007.4
20180522173338 72 77 2.0 5.0 0.00 0.00 0.00 52 1007.5
20180522172321 71 107 2.0 5.0 0.00 0.00 0.00 52 1007.6
20180522171307 71 68 1.0 5.0 0.00 0.00 0.00 51 1007.6
20180522170300 71 325 1.0 5.0 0.00 0.00 0.00 52 1007.7
20180522165241 70 24 1.0 4.0 0.00 0.00 0.00 55 1007.9
20180522164228 69 29 1.0 4.0 0.00 0.00 0.00 55 1008.0
20180522163231 69 355 1.0 5.0 0.00 0.00 0.00 58 1008.1
20180522162231 68 86 2.0 5.0 0.00 0.00 0.00 59 1008.3
20180522161201 67 304 1.0 4.0 0.00 0.00 0.00 59 1008.3
20180522160134 67 28 1.0 4.0 0.00 0.00 0.00 60 1008.4
20180522155149 65 317 1.0 3.0 0.00 0.00 0.00 65 1008.4
20180522154129 64 333 1.0 4.0 0.00 0.00 0.00 67 1008.4
20180522153104 63 103 1.0 4.0 0.00 0.00 0.00 71 1008.5
20180522152112 61 121 0.0 2.0 0.00 0.00 0.00 77 1008.5
20180522151106 59 131 0.0 2.0 0.00 0.00 0.00 81 1008.5
20180522150124 57 246 0.0 1.0 0.00 0.00 0.00 85 1008.5
20180522145108 55 246 0.0 0.0 0.00 0.00 0.00 88 1008.5
20180522144133 54 246 0.0 1.0 0.00 0.00 0.00 91 1008.6